Regional Weather Roundup
Issued by NWS

Home | Current Version | Previous Version | Graphics & Text | Print | Product List | Glossary On
Versions: 1 2 3 4 5 6 7 8 9 10 11 12 13 14 15 16 17 18 19 20 21 22 23 24 25 26 27 28 29 30 31 32 33 34 35 36 37 38 39 40 41 42 43 44 45 46 47 48 49 50
000
ASUS43 KLMK 230502
RWRKY
KENTUCKY REGIONAL WEATHER ROUNDUP
NATIONAL WEATHER SERVICE LOUISVILLE KY
100 AM EDT SAT MAY 23 2015

NOTE "FAIR" INDICATES FEW OR NO CLOUDS BELOW 12,000 FEET
WITH NO SIGNIFICANT WEATHER AND/OR OBSTRUCTIONS TO VISIBILITY.

KYZ001>023-026-027-061>063-070>075-230600-
WESTERN AND SOUTH CENTRAL KENTUCKY

CITY           SKY/WX    TMP DP  RH WIND       PRES   REMARKS
PADUCAH        MOCLDY    59  55  87 CALM      30.26F
HENDERSON      MOCLDY    59  54  82 CALM      30.27F
OWENSBORO      MOCLDY    61  55  80 CALM      30.29S
HOPKINSVILLE   MOCLDY    60  51  73 N5        30.27F
BOWLING GREEN  MOCLDY    57  51  80 CALM      30.29S
GLASGOW        NOT AVBL
$$

KYZ024-025-028>034-038-045-046-053-230600-
NORTH CENTRAL KENTUCKY

CITY           SKY/WX    TMP DP  RH WIND       PRES   REMARKS
LOUISVILLE/SDF MOCLDY    65  49  56 CALM      30.29S
LOUISVILLE/LOU MOCLDY    60  50  69 CALM      30.30S
FORT KNOX      MOCLDY    53  50  89 CALM      30.28S
$$

KYZ035>037-039>044-047>052-055>060-089>105-230600-
NORTHEAST KENTUCKY

CITY           SKY/WX    TMP DP  RH WIND       PRES   REMARKS
LEXINGTON      CLEAR     56  47  71 S3        30.31S
COVINGTON      CLEAR     52  46  80 CALM      30.29S
FRANKFORT      CLEAR     54  47  77 CALM      30.30R
$$

KYZ054-064>069-076>088-106>120-230600-
SOUTHEAST KENTUCKY

CITY           SKY/WX    TMP DP  RH WIND       PRES   REMARKS
JACKSON        MOCLDY    56  46  69 CALM      30.32S
LONDON         MOCLDY    53  45  74 CALM      30.32F
SOMERSET       NOT AVBL
MIDDLESBORO    MOCLDY    49  47  93 CALM      30.35S
MONTICELLO     CLOUDY    51  50  97 CALM      30.35S
$$




USA.gov is the U.S. government's official web portal to all federal, state and local government web resources and services.